| time (UTC) | temp F | wind direction | speed MPH | gust MPH | rain 1hr in | rain 24hr in | rain mn in | humidity % | barometer mb |
| 20260510204030 | 80 | 338 | 3.0 | 12.0 | 0.00 | 0.00 | 0.00 | 31 | 1027.0 |
| 20260510203529 | 80 | 345 | 4.0 | 12.0 | 0.00 | 0.00 | 0.00 | 29 | 1026.8 |
| 20260510203029 | 80 | 12 | 4.0 | 12.0 | 0.00 | 0.00 | 0.00 | 33 | 1027.2 |
| 20260510202528 | 80 | 333 | 4.0 | 12.0 | 0.00 | 0.00 | 0.00 | 33 | 1026.8 |
| 20260510202027 | 80 | 349 | 2.0 | 12.0 | 0.00 | 0.00 | 0.00 | 35 | 1027.3 |
| 20260510201526 | 80 | 348 | 5.0 | 12.0 | 0.00 | 0.00 | 0.00 | 35 | 1027.2 |
| 20260510201025 | 80 | 343 | 6.0 | 12.0 | 0.00 | 0.00 | 0.00 | 33 | 1027.1 |
| 20260510200524 | 80 | 354 | 4.0 | 12.0 | 0.00 | 0.00 | 0.00 | 37 | 1027.4 |
| 20260510200020 | 80 | 340 | 4.0 | 12.0 | 0.00 | 0.00 | 0.00 | 38 | 1027.5 |
| 20260510195003 | 79 | 11 | 5.0 | 12.0 | 0.00 | 0.00 | 0.00 | 37 | 1027.2 |
| 20260510194502 | 79 | 352 | 5.0 | 12.0 | 0.00 | 0.00 | 0.00 | 36 | 1027.6 |
| 20260510194002 | 79 | 316 | 2.0 | 12.0 | 0.00 | 0.00 | 0.00 | 38 | 1027.6 |
| 20260510193501 | 79 | 335 | 6.0 | 12.0 | 0.00 | 0.00 | 0.00 | 37 | 1027.5 |
| 20260510193000 | 79 | 1 | 4.0 | 12.0 | 0.00 | 0.00 | 0.00 | 38 | 1027.8 |
| 20260510192459 | 79 | 9 | 6.0 | 12.0 | 0.00 | 0.00 | 0.00 | 37 | 1027.3 |
| 20260510191959 | 80 | 13 | 4.0 | 12.0 | 0.00 | 0.00 | 0.00 | 37 | 1027.4 |
| 20260510191458 | 80 | 267 | 3.0 | 12.0 | 0.00 | 0.00 | 0.00 | 42 | 1027.5 |
| 20260510190957 | 79 | 304 | 2.0 | 12.0 | 0.00 | 0.00 | 0.00 | 38 | 1027.2 |
| 20260510185936 | 80 | 335 | 4.0 | 12.0 | 0.00 | 0.00 | 0.00 | 34 | 1027.7 |
| 20260510185435 | 79 | 137 | 1.0 | 12.0 | 0.00 | 0.00 | 0.00 | 34 | 1027.8 |
| 20260510184934 | 79 | 286 | 1.0 | 12.0 | 0.00 | 0.00 | 0.00 | 34 | 1027.7 |
| 20260510184433 | 78 | 346 | 5.0 | 12.0 | 0.00 | 0.00 | 0.00 | 37 | 1027.9 |
| 20260510183928 | 78 | 314 | 2.0 | 12.0 | 0.00 | 0.00 | 0.00 | 37 | 1028.0 |
| 20260510183427 | 77 | 3 | 3.0 | 12.0 | 0.00 | 0.00 | 0.00 | 39 | 1027.8 |
| 20260510182926 | 77 | 15 | 4.0 | 12.0 | 0.00 | 0.00 | 0.00 | 45 | 1027.8 |
| 20260510182425 | 77 | 36 | 5.0 | 12.0 | 0.00 | 0.00 | 0.00 | 50 | 1027.8 |
| 20260510181924 | 77 | 350 | 4.0 | 12.0 | 0.00 | 0.00 | 0.00 | 56 | 1027.7 |
| 20260510181423 | 77 | 306 | 2.0 | 12.0 | 0.00 | 0.00 | 0.00 | 62 | 1027.9 |
| 20260510180922 | 77 | 337 | 3.0 | 12.0 | 0.00 | 0.00 | 0.00 | 62 | 1027.9 |
| 20260510180421 | 77 | 355 | 3.0 | 12.0 | 0.00 | 0.00 | 0.00 | 63 | 1027.7 |
| 20260510175920 | 76 | 27 | 4.0 | 12.0 | 0.00 | 0.00 | 0.00 | 66 | 1027.9 |
| 20260510174913 | 76 | 328 | 2.0 | 12.0 | 0.00 | 0.00 | 0.00 | 69 | 1028.3 |
| 20260510174409 | 76 | 10 | 5.0 | 12.0 | 0.00 | 0.00 | 0.00 | 70 | 1028.1 |
| 20260510173908 | 75 | 332 | 4.0 | 12.0 | 0.00 | 0.00 | 0.00 | 73 | 1027.8 |
| 20260510173407 | 75 | 24 | 5.0 | 12.0 | 0.00 | 0.00 | 0.00 | 69 | 1027.9 |
| 20260510172906 | 76 | 356 | 6.0 | 12.0 | 0.00 | 0.00 | 0.00 | 72 | 1028.3 |
| 20260510171849 | 76 | 26 | 4.0 | 12.0 | 0.00 | 0.00 | 0.00 | 74 | 1027.9 |
| 20260510171345 | 75 | 31 | 4.0 | 12.0 | 0.00 | 0.00 | 0.00 | 73 | 1028.2 |
| 20260510170844 | 75 | 31 | 7.0 | 12.0 | 0.00 | 0.00 | 0.00 | 76 | 1028.5 |
| 20260510170343 | 74 | 39 | 6.0 | 12.0 | 0.00 | 0.00 | 0.00 | 77 | 1028.1 |
| 20260510165842 | 74 | 11 | 2.0 | 12.0 | 0.00 | 0.00 | 0.00 | 79 | 1028.2 |
| 20260510165341 | 74 | 52 | 4.0 | 12.0 | 0.00 | 0.00 | 0.00 | 80 | 1027.9 |
| 20260510164840 | 73 | 26 | 5.0 | 12.0 | 0.00 | 0.00 | 0.00 | 81 | 1028.2 |
| 20260510164335 | 73 | 2 | 5.0 | 12.0 | 0.00 | 0.00 | 0.00 | 80 | 1027.7 |
| 20260510163834 | 73 | 40 | 5.0 | 12.0 | 0.00 | 0.00 | 0.00 | 81 | 1028.2 |
| 20260510163334 | 72 | 10 | 6.0 | 12.0 | 0.00 | 0.00 | 0.00 | 84 | 1028.2 |
| 20260510162832 | 72 | 63 | 5.0 | 12.0 | 0.00 | 0.00 | 0.00 | 84 | 1028.0 |
| 20260510162331 | 72 | 27 | 5.0 | 12.0 | 0.00 | 0.00 | 0.00 | 84 | 1028.0 |
| 20260510161830 | 72 | 6 | 6.0 | 12.0 | 0.00 | 0.00 | 0.00 | 82 | 1028.6 |
| 20260510161329 | 73 | 33 | 6.0 | 12.0 | 0.00 | 0.00 | 0.00 | 80 | 1028.5 |
| 20260510160828 | 74 | 20 | 4.0 | 12.0 | 0.00 | 0.00 | 0.00 | 81 | 1028.6 |
| 20260510160327 | 74 | 40 | 1.0 | 12.0 | 0.00 | 0.00 | 0.00 | 77 | 1028.4 |
| 20260510155826 | 74 | 121 | 1.0 | 12.0 | 0.00 | 0.00 | 0.00 | 77 | 1028.1 |
| 20260510155325 | 74 | 215 | 3.0 | 12.0 | 0.00 | 0.00 | 0.00 | 77 | 1028.7 |
| 20260510154825 | 74 | 197 | 1.0 | 12.0 | 0.00 | 0.00 | 0.00 | 78 | 1028.3 |
| 20260510154320 | 73 | 220 | 1.0 | 12.0 | 0.00 | 0.00 | 0.00 | 79 | 1028.2 |
| 20260510153303 | 73 | 138 | 0.0 | 12.0 | 0.00 | 0.00 | 0.00 | 81 | 1028.1 |
| 20260510152803 | 73 | 102 | 1.0 | 12.0 | 0.00 | 0.00 | 0.00 | 82 | 1028.2 |
| 20260510152301 | 73 | 325 | 2.0 | 12.0 | 0.00 | 0.00 | 0.00 | 82 | 1028.2 |
| 20260510151800 | 72 | 247 | 0.0 | 12.0 | 0.00 | 0.00 | 0.00 | 84 | 1028.1 |
| 20260510151300 | 71 | 293 | 3.0 | 12.0 | 0.00 | 0.00 | 0.00 | 85 | 1028.3 |
| 20260510150759 | 71 | 115 | 2.0 | 12.0 | 0.00 | 0.00 | 0.00 | 85 | 1027.9 |
| 20260510150258 | 71 | 187 | 2.0 | 12.0 | 0.00 | 0.00 | 0.00 | 86 | 1028.1 |
| 20260510145756 | 71 | 156 | 1.0 | 12.0 | 0.00 | 0.00 | 0.00 | 87 | 1028.2 |
| 20260510145256 | 70 | 188 | 1.0 | 12.0 | 0.00 | 0.00 | 0.00 | 89 | 1028.3 |
| 20260510144755 | 69 | 219 | 2.0 | 12.0 | 0.00 | 0.00 | 0.00 | 90 | 1028.3 |
| 20260510144253 | 69 | 181 | 1.0 | 12.0 | 0.00 | 0.00 | 0.00 | 93 | 1028.1 |
| 20260510143753 | 68 | 151 | 1.0 | 12.0 | 0.00 | 0.00 | 0.00 | 95 | 1028.0 |
| 20260510143251 | 67 | 136 | 1.0 | 12.0 | 0.00 | 0.00 | 0.00 | 96 | 1028.0 |
| 20260510142751 | 67 | 132 | 2.0 | 12.0 | 0.00 | 0.00 | 0.00 | 98 | 1028.1 |
| 20260510142249 | 67 | 155 | 0.0 | 12.0 | 0.00 | 0.00 | 0.00 | 99 | 1028.0 |
| 20260510141749 | 66 | 179 | 0.0 | 12.0 | 0.00 | 0.00 | 0.00 | 99 | 1028.3 |
| 20260510141248 | 66 | 175 | 1.0 | 12.0 | 0.00 | 0.00 | 0.00 | 99 | 1028.1 |
| 20260510140747 | 65 | 180 | 1.0 | 12.0 | 0.00 | 0.00 | 0.00 | 99 | 1028.2 |
| 20260510140246 | 65 | 139 | 0.0 | 12.0 | 0.00 | 0.00 | 0.00 | 99 | 1028.0 |
| 20260510135744 | 64 | 165 | 0.0 | 12.0 | 0.00 | 0.00 | 0.00 | 99 | 1028.1 |
| 20260510135244 | 64 | 230 | 0.0 | 12.0 | 0.00 | 0.00 | 0.00 | 99 | 1028.2 |
| 20260510134743 | 64 | 230 | 0.0 | 12.0 | 0.00 | 0.00 | 0.00 | 99 | 1028.0 |
| 20260510134242 | 64 | 230 | 0.0 | 12.0 | 0.00 | 0.00 | 0.00 | 99 | 1028.2 |
| 20260510133222 | 64 | 230 | 0.0 | 12.0 | 0.00 | 0.00 | 0.00 | 99 | 1028.0 |
| 20260510132721 | 63 | 230 | 0.0 | 12.0 | 0.00 | 0.00 | 0.00 | 99 | 1027.8 |
| 20260510131704 | 63 | 230 | 0.0 | 12.0 | 0.00 | 0.00 | 0.00 | 99 | 1027.7 |
| 20260510130644 | 63 | 230 | 0.0 | 12.0 | 0.00 | 0.00 | 0.00 | 98 | 1027.9 |
| 20260510130143 | 63 | 230 | 0.0 | 12.0 | 0.00 | 0.00 | 0.00 | 100 | 1027.8 |
| 20260510125641 | 62 | 230 | 0.0 | 12.0 | 0.00 | 0.00 | 0.00 | 99 | 1027.7 |
| 20260510125141 | 62 | 230 | 0.0 | 12.0 | 0.00 | 0.00 | 0.00 | 99 | 1028.0 |
| 20260510124641 | 62 | 230 | 0.0 | 12.0 | 0.00 | 0.00 | 0.00 | 99 | 1027.4 |
| 20260510124140 | 62 | 230 | 0.0 | 12.0 | 0.00 | 0.00 | 0.00 | 99 | 1027.3 |
| 20260510123639 | 62 | 230 | 0.0 | 12.0 | 0.00 | 0.00 | 0.00 | 99 | 1027.4 |
| 20260510123138 | 61 | 230 | 0.0 | 12.0 | 0.00 | 0.00 | 0.00 | 99 | 1027.5 |
| 20260510122638 | 61 | 230 | 0.0 | 12.0 | 0.00 | 0.00 | 0.00 | 99 | 1027.4 |
| 20260510122137 | 61 | 230 | 0.0 | 12.0 | 0.00 | 0.00 | 0.00 | 98 | 1027.0 |
| 20260510121636 | 61 | 230 | 0.0 | 12.0 | 0.00 | 0.00 | 0.00 | 98 | 1027.0 |
| 20260510120619 | 60 | 230 | 0.0 | 12.0 | 0.00 | 0.00 | 0.00 | 98 | 1027.0 |
| 20260510120118 | 60 | 230 | 0.0 | 12.0 | 0.00 | 0.00 | 0.00 | 98 | 1026.9 |
| 20260510115101 | 60 | 230 | 0.0 | 12.0 | 0.00 | 0.00 | 0.00 | 98 | 1026.8 |
| 20260510114600 | 60 | 230 | 0.0 | 12.0 | 0.00 | 0.00 | 0.00 | 98 | 1027.0 |
| 20260510114059 | 60 | 230 | 0.0 | 12.0 | 0.00 | 0.00 | 0.00 | 98 | 1026.7 |
| 20260510113558 | 60 | 230 | 0.0 | 12.0 | 0.00 | 0.00 | 0.00 | 98 | 1026.6 |
| 20260510113057 | 60 | 230 | 0.0 | 12.0 | 0.00 | 0.00 | 0.00 | 98 | 1026.5 |
| 20260510112557 | 60 | 230 | 0.0 | 12.0 | 0.00 | 0.00 | 0.00 | 98 | 1026.5 |
| 20260510112053 | 60 | 230 | 0.0 | 12.0 | 0.00 | 0.00 | 0.00 | 98 | 1026.4 |
| 20260510111552 | 60 | 230 | 0.0 | 12.0 | 0.00 | 0.00 | 0.00 | 98 | 1026.2 |
| 20260510111051 | 60 | 230 | 0.0 | 12.0 | 0.00 | 0.00 | 0.00 | 97 | 1026.4 |
| 20260510110546 | 60 | 230 | 1.0 | 12.0 | 0.00 | 0.00 | 0.00 | 98 | 1026.3 |
| 20260510105014 | 60 | 230 | 1.0 | 12.0 | 0.00 | 0.00 | 0.00 | 98 | 1026.0 |
| 20260510104513 | 60 | 230 | 1.0 | 12.0 | 0.00 | 0.00 | 0.00 | 97 | 1026.0 |
| 20260510103506 | 60 | 224 | 1.0 | 12.0 | 0.00 | 0.00 | 0.00 | 97 | 1025.9 |
| 20260510103005 | 60 | 224 | 1.0 | 12.0 | 0.00 | 0.00 | 0.00 | 97 | 1025.7 |
| 20260510102504 | 60 | 224 | 0.0 | 12.0 | 0.00 | 0.00 | 0.00 | 97 | 1025.5 |
| 20260510102004 | 60 | 222 | 2.0 | 12.0 | 0.00 | 0.00 | 0.00 | 97 | 1025.5 |
| 20260510101503 | 59 | 183 | 0.0 | 12.0 | 0.00 | 0.00 | 0.00 | 96 | 1025.4 |
| 20260510100446 | 60 | 181 | 1.0 | 12.0 | 0.00 | 0.00 | 0.00 | 96 | 1025.4 |
| 20260510095945 | 60 | 181 | 0.0 | 12.0 | 0.00 | 0.00 | 0.00 | 96 | 1025.5 |
| 20260510095444 | 60 | 181 | 0.0 | 12.0 | 0.00 | 0.00 | 0.00 | 96 | 1025.4 |
| 20260510094943 | 60 | 181 | 0.0 | 12.0 | 0.00 | 0.00 | 0.00 | 96 | 1025.4 |
| 20260510094442 | 60 | 181 | 0.0 | 12.0 | 0.00 | 0.00 | 0.00 | 96 | 1025.3 |
| 20260510093941 | 61 | 181 | 0.0 | 12.0 | 0.00 | 0.00 | 0.00 | 96 | 1025.1 |
| 20260510093440 | 61 | 181 | 1.0 | 12.0 | 0.00 | 0.00 | 0.00 | 97 | 1025.4 |
| 20260510092939 | 61 | 181 | 1.0 | 12.0 | 0.00 | 0.00 | 0.00 | 96 | 1025.0 |
| 20260510092438 | 61 | 181 | 1.0 | 12.0 | 0.00 | 0.00 | 0.00 | 96 | 1025.0 |
| 20260510091431 | 61 | 181 | 0.0 | 12.0 | 0.00 | 0.00 | 0.00 | 96 | 1025.4 |
| 20260510090414 | 61 | 181 | 1.0 | 12.0 | 0.00 | 0.00 | 0.00 | 96 | 1025.0 |
| 20260510085913 | 61 | 181 | 2.0 | 12.0 | 0.00 | 0.00 | 0.00 | 96 | 1025.0 |
| 20260510085412 | 61 | 181 | 1.0 | 12.0 | 0.00 | 0.00 | 0.00 | 96 | 1025.2 |
| 20260510084911 | 61 | 181 | 0.0 | 12.0 | 0.00 | 0.00 | 0.00 | 96 | 1025.3 |
| 20260510084410 | 61 | 181 | 1.0 | 12.0 | 0.00 | 0.00 | 0.00 | 95 | 1025.0 |
| 20260510083909 | 61 | 181 | 0.0 | 12.0 | 0.00 | 0.00 | 0.00 | 95 | 1024.7 |
| 20260510082852 | 62 | 319 | 0.0 | 12.0 | 0.00 | 0.00 | 0.00 | 95 | 1024.7 |
| 20260510082351 | 62 | 319 | 0.0 | 12.0 | 0.00 | 0.00 | 0.00 | 95 | 1024.8 |
| 20260510081850 | 62 | 319 | 0.0 | 12.0 | 0.00 | 0.00 | 0.00 | 95 | 1024.7 |
| 20260510081349 | 62 | 319 | 1.0 | 12.0 | 0.00 | 0.00 | 0.00 | 94 | 1024.9 |
| 20260510080848 | 62 | 319 | 1.0 | 12.0 | 0.00 | 0.00 | 0.00 | 94 | 1024.8 |
| 20260510075831 | 62 | 319 | 0.0 | 12.0 | 0.00 | 0.00 | 0.00 | 94 | 1024.7 |
| 20260510075330 | 63 | 319 | 0.0 | 12.0 | 0.00 | 0.00 | 0.00 | 94 | 1024.6 |
| 20260510074829 | 63 | 319 | 0.0 | 12.0 | 0.00 | 0.00 | 0.00 | 94 | 1024.6 |
| 20260510073822 | 63 | 319 | 1.0 | 12.0 | 0.00 | 0.00 | 0.00 | 94 | 1024.5 |
| 20260510073322 | 63 | 315 | 1.0 | 12.0 | 0.00 | 0.00 | 0.00 | 94 | 1024.6 |
| 20260510072821 | 63 | 318 | 1.0 | 12.0 | 0.00 | 0.00 | 0.00 | 94 | 1024.5 |
| 20260510071804 | 64 | 318 | 1.0 | 12.0 | 0.00 | 0.00 | 0.00 | 93 | 1024.4 |
| 20260510071303 | 64 | 318 | 1.0 | 12.0 | 0.00 | 0.00 | 0.00 | 93 | 1024.6 |
| 20260510070802 | 64 | 317 | 1.0 | 12.0 | 0.00 | 0.00 | 0.00 | 93 | 1024.5 |
| 20260510070301 | 64 | 325 | 1.0 | 12.0 | 0.00 | 0.00 | 0.00 | 93 | 1024.5 |
| 20260510065800 | 64 | 325 | 1.0 | 12.0 | 0.00 | 0.00 | 0.00 | 93 | 1024.3 |
| 20260510065259 | 64 | 325 | 1.0 | 12.0 | 0.00 | 0.00 | 0.00 | 93 | 1024.8 |
| 20260510064758 | 64 | 236 | 2.0 | 12.0 | 0.00 | 0.00 | 0.00 | 93 | 1024.5 |
| 20260510064257 | 64 | 236 | 0.0 | 12.0 | 0.00 | 0.00 | 0.00 | 93 | 1024.4 |
| 20260510063756 | 64 | 236 | 0.0 | 12.0 | 0.00 | 0.00 | 0.00 | 93 | 1024.5 |
| 20260510063255 | 64 | 236 | 0.0 | 12.0 | 0.00 | 0.00 | 0.00 | 93 | 1024.5 |
| 20260510062754 | 64 | 236 | 0.0 | 12.0 | 0.00 | 0.00 | 0.00 | 92 | 1024.5 |
| 20260510062253 | 64 | 236 | 0.0 | 12.0 | 0.00 | 0.00 | 0.00 | 92 | 1024.4 |
| 20260510061237 | 64 | 236 | 0.0 | 12.0 | 0.00 | 0.00 | 0.00 | 92 | 1024.5 |
| 20260510060733 | 64 | 236 | 0.0 | 12.0 | 0.00 | 0.00 | 0.00 | 92 | 1024.7 |
| 20260510060232 | 64 | 236 | 0.0 | 12.0 | 0.00 | 0.00 | 0.00 | 92 | 1024.7 |
| 20260510055215 | 64 | 236 | 0.0 | 12.0 | 0.00 | 0.00 | 0.00 | 92 | 1024.4 |
| 20260510054714 | 64 | 236 | 0.0 | 12.0 | 0.00 | 0.00 | 0.00 | 92 | 1024.6 |
| 20260510054213 | 64 | 236 | 0.0 | 12.0 | 0.00 | 0.00 | 0.00 | 92 | 1024.5 |
| 20260510053712 | 64 | 236 | 0.0 | 12.0 | 0.00 | 0.00 | 0.00 | 91 | 1024.4 |
| 20260510052655 | 64 | 240 | 1.0 | 12.0 | 0.00 | 0.00 | 0.00 | 92 | 1024.4 |
| 20260510051635 | 64 | 243 | 2.0 | 12.0 | 0.00 | 0.00 | 0.00 | 92 | 1024.6 |
| 20260510051134 | 64 | 244 | 1.0 | 12.0 | 0.00 | 0.00 | 0.00 | 91 | 1024.6 |
| 20260510050634 | 65 | 244 | 0.0 | 12.0 | 0.00 | 0.00 | 0.00 | 91 | 1024.4 |
| 20260510050133 | 65 | 255 | 1.0 | 12.0 | 0.00 | 0.00 | 0.00 | 91 | 1024.6 |
| 20260510045632 | 65 | 233 | 1.0 | 12.0 | 0.00 | 0.00 | 0.00 | 91 | 1024.5 |
| 20260510043037 | 66 | 233 | 0.0 | 12.0 | 0.00 | 0.00 | 0.00 | 90 | 1024.7 |
| 20260510042536 | 66 | 233 | 0.0 | 12.0 | 0.00 | 0.00 | 0.00 | 89 | 1024.6 |
| 20260510042035 | 66 | 233 | 1.0 | 12.0 | 0.00 | 0.00 | 0.00 | 89 | 1024.8 |
| 20260510041534 | 66 | 234 | 1.0 | 12.0 | 0.00 | 0.00 | 0.00 | 89 | 1024.7 |
| 20260510041033 | 66 | 257 | 1.0 | 12.0 | 0.00 | 0.00 | 0.00 | 89 | 1025.1 |
| 20260510040532 | 66 | 244 | 1.0 | 12.0 | 0.00 | 0.00 | 0.00 | 89 | 1024.7 |
| 20260510040031 | 66 | 234 | 2.0 | 12.0 | 0.00 | 0.00 | 0.00 | 89 | 1024.8 |
| 20260510035530 | 66 | 217 | 1.0 | 12.0 | 0.00 | 0.00 | 0.00 | 89 | 1024.6 |
| 20260510034513 | 66 | 191 | 1.0 | 12.0 | 0.00 | 0.00 | 0.00 | 89 | 1024.7 |
| 20260510034012 | 66 | 186 | 0.0 | 12.0 | 0.00 | 0.00 | 0.00 | 88 | 1024.7 |
| 20260510033511 | 66 | 203 | 0.0 | 12.0 | 0.00 | 0.00 | 0.00 | 88 | 1024.9 |
| 20260510033010 | 66 | 206 | 1.0 | 12.0 | 0.00 | 0.00 | 0.00 | 88 | 1025.1 |
| 20260510032509 | 66 | 207 | 0.0 | 12.0 | 0.00 | 0.00 | 0.00 | 88 | 1024.9 |
| 20260510032009 | 66 | 203 | 1.0 | 12.0 | 0.00 | 0.00 | 0.00 | 88 | 1024.8 |
| 20260510031508 | 66 | 222 | 2.0 | 12.0 | 0.00 | 0.00 | 0.00 | 88 | 1024.7 |
| 20260510031007 | 66 | 211 | 2.0 | 12.0 | 0.00 | 0.00 | 0.00 | 88 | 1024.7 |
| 20260510030506 | 67 | 209 | 2.0 | 12.0 | 0.00 | 0.00 | 0.00 | 88 | 1024.6 |
| 20260510030005 | 67 | 198 | 2.0 | 12.0 | 0.00 | 0.00 | 0.00 | 88 | 1024.4 |
| 20260510025504 | 67 | 205 | 2.0 | 12.0 | 0.00 | 0.00 | 0.00 | 87 | 1024.6 |
| 20260510025003 | 67 | 206 | 1.0 | 12.0 | 0.00 | 0.00 | 0.00 | 87 | 1024.6 |
| 20260510023946 | 67 | 196 | 1.0 | 12.0 | 0.00 | 0.00 | 0.00 | 87 | 1024.4 |
| 20260510022929 | 68 | 190 | 1.0 | 12.0 | 0.00 | 0.00 | 0.00 | 86 | 1024.5 |
| 20260510022428 | 68 | 209 | 1.0 | 12.0 | 0.00 | 0.00 | 0.00 | 86 | 1024.0 |
| 20260510021927 | 68 | 203 | 2.0 | 12.0 | 0.00 | 0.00 | 0.00 | 86 | 1024.0 |
| 20260510020910 | 68 | 214 | 2.0 | 12.0 | 0.00 | 0.00 | 0.00 | 85 | 1023.9 |
| 20260510020409 | 68 | 202 | 1.0 | 12.0 | 0.00 | 0.00 | 0.00 | 85 | 1024.0 |
| 20260510015908 | 69 | 215 | 2.0 | 12.0 | 0.00 | 0.00 | 0.00 | 84 | 1023.7 |
| 20260510015407 | 69 | 198 | 2.0 | 12.0 | 0.00 | 0.00 | 0.00 | 84 | 1023.5 |
| 20260510014350 | 69 | 195 | 2.0 | 12.0 | 0.00 | 0.00 | 0.00 | 83 | 1023.4 |
| 20260510013849 | 69 | 196 | 3.0 | 12.0 | 0.00 | 0.00 | 0.00 | 82 | 1023.2 |
| 20260510013348 | 70 | 196 | 1.0 | 12.0 | 0.00 | 0.00 | 0.00 | 82 | 1023.1 |
| 20260510012847 | 70 | 208 | 2.0 | 12.0 | 0.00 | 0.00 | 0.00 | 82 | 1023.2 |
| 20260510012346 | 70 | 188 | 1.0 | 12.0 | 0.00 | 0.00 | 0.00 | 82 | 1022.8 |
| 20260510011845 | 70 | 187 | 1.0 | 12.0 | 0.00 | 0.00 | 0.00 | 81 | 1023.0 |
| 20260510011344 | 70 | 182 | 1.0 | 12.0 | 0.00 | 0.00 | 0.00 | 81 | 1022.3 |
| 20260510010843 | 70 | 184 | 1.0 | 12.0 | 0.00 | 0.00 | 0.00 | 81 | 1022.3 |
| 20260510010342 | 71 | 190 | 2.0 | 12.0 | 0.00 | 0.00 | 0.00 | 81 | 1022.5 |
| 20260510005841 | 71 | 178 | 1.0 | 12.0 | 0.00 | 0.00 | 0.00 | 80 | 1022.6 |
| 20260510005340 | 71 | 175 | 1.0 | 12.0 | 0.00 | 0.00 | 0.00 | 79 | 1022.5 |
| 20260510004839 | 72 | 191 | 1.0 | 12.0 | 0.00 | 0.00 | 0.00 | 78 | 1022.7 |
| 20260510004338 | 72 | 172 | 0.0 | 12.0 | 0.00 | 0.00 | 0.00 | 78 | 1022.5 |
| 20260510003837 | 72 | 197 | 0.0 | 12.0 | 0.00 | 0.00 | 0.00 | 77 | 1022.7 |
| 20260510003336 | 73 | 197 | 0.0 | 12.0 | 0.00 | 0.00 | 0.00 | 77 | 1022.5 |
| 20260510002836 | 73 | 197 | 0.0 | 12.0 | 0.00 | 0.00 | 0.00 | 76 | 1022.3 |
| 20260510002334 | 73 | 193 | 0.0 | 12.0 | 0.00 | 0.00 | 0.00 | 76 | 1022.3 |
| 20260510001833 | 73 | 190 | 0.0 | 12.0 | 0.00 | 0.00 | 0.00 | 75 | 1022.3 |
| 20260510001332 | 74 | 196 | 0.0 | 12.0 | 0.00 | 0.00 | 0.00 | 75 | 1022.2 |
| 20260510000831 | 74 | 224 | 0.0 | 12.0 | 0.00 | 0.00 | 0.00 | 75 | 1022.2 |
| 20260510000330 | 74 | 218 | 0.0 | 12.0 | 0.00 | 0.00 | 0.00 | 73 | 1022.4 |
| 20260509235830 | 74 | 208 | 1.0 | 12.0 | 0.00 | 0.00 | 0.00 | 73 | 1022.2 |
| 20260509235328 | 74 | 197 | 0.0 | 12.0 | 0.00 | 0.00 | 0.00 | 72 | 1022.1 |
| 20260509233755 | 74 | 217 | 0.0 | 12.0 | 0.00 | 0.00 | 0.00 | 72 | 1022.0 |
| 20260509233255 | 74 | 207 | 0.0 | 12.0 | 0.00 | 0.00 | 0.00 | 71 | 1022.3 |
| 20260509231722 | 74 | 196 | 0.0 | 12.0 | 0.00 | 0.00 | 0.00 | 71 | 1021.9 |
| 20260509231221 | 74 | 227 | 1.0 | 12.0 | 0.00 | 0.00 | 0.00 | 70 | 1022.1 |
| 20260509230715 | 75 | 225 | 1.0 | 12.0 | 0.00 | 0.00 | 0.00 | 69 | 1022.1 |
| 20260509230214 | 75 | 203 | 1.0 | 12.0 | 0.00 | 0.00 | 0.00 | 69 | 1022.2 |
| 20260509225714 | 75 | 271 | 0.0 | 12.0 | 0.00 | 0.00 | 0.00 | 68 | 1022.2 |
| 20260509225212 | 75 | 271 | 0.0 | 12.0 | 0.00 | 0.00 | 0.00 | 70 | 1022.4 |
| 20260509224711 | 75 | 271 | 0.0 | 12.0 | 0.00 | 0.00 | 0.00 | 68 | 1021.9 |
| 20260509224211 | 75 | 271 | 1.0 | 12.0 | 0.00 | 0.00 | 0.00 | 71 | 1022.2 |
| 20260509223710 | 75 | 271 | 0.0 | 12.0 | 0.00 | 0.00 | 0.00 | 72 | 1021.8 |
| 20260509223209 | 75 | 271 | 0.0 | 12.0 | 0.00 | 0.00 | 0.00 | 71 | 1022.0 |
| 20260509222708 | 75 | 271 | 0.0 | 12.0 | 0.00 | 0.00 | 0.00 | 67 | 1022.0 |
| 20260509220620 | 75 | 313 | 0.0 | 12.0 | 0.00 | 0.00 | 0.00 | 68 | 1021.7 |
| 20260509220119 | 75 | 305 | 1.0 | 12.0 | 0.00 | 0.00 | 0.00 | 67 | 1021.7 |
| 20260509215618 | 75 | 266 | 3.0 | 12.0 | 0.00 | 0.00 | 0.00 | 69 | 1021.7 |
| 20260509215117 | 75 | 258 | 0.0 | 12.0 | 0.00 | 0.00 | 0.00 | 70 | 1021.9 |
| 20260509214613 | 75 | 249 | 0.0 | 12.0 | 0.00 | 0.00 | 0.00 | 69 | 1021.7 |
| 20260509214112 | 75 | 274 | 0.0 | 12.0 | 0.00 | 0.00 | 0.00 | 68 | 1021.8 |
| 20260509213612 | 75 | 278 | 1.0 | 12.0 | 0.00 | 0.00 | 0.00 | 67 | 1021.6 |
| 20260509213111 | 75 | 288 | 3.0 | 12.0 | 0.00 | 0.00 | 0.00 | 67 | 1021.4 |
| 20260509212609 | 75 | 293 | 0.0 | 12.0 | 0.00 | 0.00 | 0.00 | 67 | 1021.8 |
| 20260509211553 | 75 | 4 | 3.0 | 12.0 | 0.00 | 0.00 | 0.00 | 67 | 1021.7 |
| 20260509211052 | 75 | 19 | 4.0 | 12.0 | 0.00 | 0.00 | 0.00 | 66 | 1021.5 |
| 20260509210551 | 75 | 29 | 5.0 | 12.0 | 0.00 | 0.00 | 0.00 | 65 | 1021.6 |
| 20260509210047 | 75 | 4 | 4.0 | 12.0 | 0.00 | 0.00 | 0.00 | 65 | 1021.5 |
| 20260509205030 | 76 | 354 | 3.0 | 12.0 | 0.00 | 0.00 | 0.00 | 64 | 1022.1 |
| 20260509204529 | 76 | 313 | 3.0 | 12.0 | 0.00 | 0.00 | 0.00 | 63 | 1022.0 |